GW3504 Weather Reports


time (UTC)temp
C
wind
direction
speed
KPH
gust
KPH
rain 1hr
cm
rain 24hr
cm
rain mn
cm
humidity
%
barometer
mb
20260506025525 10 0 0.0 11.3 0.00 2.01 1.19 67 1014.2
20260506025029 10 0 0.0 11.3 0.00 2.01 1.19 67 1014.0
20260506024547 10 336 0.0 14.5 0.00 2.01 1.19 67 1014.1
20260506024023 10 0 1.6 14.5 0.00 2.01 1.19 67 1013.8
20260506023525 10 11 0.0 14.5 0.00 2.01 1.19 67 1013.8
20260506023039 10 0 4.8 14.5 0.00 2.01 1.19 67 1013.7
20260506022525 10 5 1.6 12.9 0.00 2.01 1.19 68 1013.4
20260506022021 10 0 3.2 12.9 0.00 2.01 1.19 68 1013.5
20260506021537 10 0 1.6 12.9 0.00 2.01 1.19 68 1013.4
20260506021022 10 0 0.0 3.2 0.00 2.01 1.19 68 1013.5
20260506020527 10 0 0.0 3.2 0.00 2.01 1.19 67 1013.3
20260506020035 10 0 0.0 8.0 0.00 2.01 1.19 67 1013.2
20260506015524 11 0 0.0 8.0 0.00 2.01 1.19 67 1013.1
20260506015024 11 355 0.0 0.0 0.00 2.01 1.19 68 1012.8
20260506014543 11 0 0.0 0.0 0.00 2.01 1.19 67 1012.8
20260506014023 11 0 0.0 0.0 0.00 2.01 1.19 65 1012.7
20260506013523 11 0 0.0 3.2 0.00 2.01 1.19 64 1012.6
20260506013036 11 0 0.0 3.2 0.00 2.01 1.19 63 1012.7
20260506012521 11 0 0.0 8.0 0.00 2.01 1.19 63 1012.5
20260506012023 11 5 0.0 8.0 0.00 2.01 1.19 62 1012.5
20260506011538 11 0 0.0 6.4 0.00 2.01 1.19 65 1012.7
20260506011023 11 0 0.0 12.9 0.00 2.01 1.19 65 1012.6
20260506010523 11 0 0.0 12.9 0.00 2.01 1.19 67 1012.7
20260506010045 11 360 0.0 1.6 0.00 2.01 1.19 73 1012.6
20260506005522 11 0 0.0 0.0 0.00 2.01 1.19 78 1012.5
20260506005023 11 0 0.0 0.0 0.00 2.01 1.19 80 1012.6
20260506004546 11 0 0.0 0.0 0.00 2.01 1.19 79 1012.5
20260506004024 11 0 0.0 1.6 0.00 2.01 1.19 79 1012.3
20260506003523 11 0 0.0 1.6 0.00 2.01 1.19 79 1012.2
20260506003040 11 0 0.0 0.0 0.00 2.01 1.19 78 1012.3
20260506002522 11 0 0.0 3.2 0.00 2.01 1.19 78 1012.3
20260506002023 11 0 0.0 3.2 0.00 2.01 1.19 78 1012.0
20260506001535 11 0 0.0 3.2 0.00 2.01 1.19 78 1012.2
20260506001023 11 0 0.0 3.2 0.00 2.01 1.19 78 1012.3
20260506000524 11 355 0.0 0.0 0.00 2.01 1.19 78 1012.4
20260506000038 11 0 0.0 0.0 0.00 2.01 1.19 78 1012.3
20260505235524 11 0 0.0 0.0 0.00 2.01 1.19 77 1012.3
20260505235024 11 0 0.0 0.0 0.00 2.01 1.19 77 1012.1
20260505234536 11 0 0.0 0.0 0.00 2.01 1.19 76 1012.2
20260505234024 11 0 0.0 0.0 0.00 2.01 1.19 76 1012.4
20260505233524 11 0 0.0 0.0 0.00 2.01 1.19 77 1012.5
20260505233035 11 0 0.0 0.0 0.00 2.01 1.19 76 1012.4
20260505232521 11 0 0.0 0.0 0.00 2.01 1.19 76 1012.3
20260505232021 11 0 0.0 0.0 0.00 2.01 1.19 76 1012.3
20260505231535 11 0 0.0 0.0 0.00 2.01 1.19 76 1012.2
20260505231023 11 0 0.0 0.0 0.00 2.01 1.19 75 1012.3
20260505230537 11 0 0.0 0.0 0.00 2.01 1.19 75 1012.3
20260505230047 11 0 0.0 0.0 0.00 2.01 1.19 75 1012.3
20260505225522 11 0 0.0 0.0 0.00 2.01 1.19 76 1012.4
20260505225026 11 0 0.0 0.0 0.00 2.01 1.19 76 1012.5
20260505224537 11 0 0.0 3.2 0.00 2.01 1.19 75 1012.4
20260505224022 11 0 0.0 6.4 0.00 2.01 1.19 76 1012.4
20260505223521 11 0 0.0 6.4 0.00 2.01 1.19 75 1012.3
20260505223036 11 0 0.0 8.0 0.00 2.01 1.19 75 1012.2
20260505222522 11 0 0.0 8.0 0.00 2.01 1.19 75 1012.1
20260505222024 11 13 0.0 8.0 0.00 2.01 1.19 75 1012.1
20260505221536 11 40 0.0 6.4 0.00 2.01 1.19 76 1012.2
20260505221023 11 46 0.0 6.4 0.00 2.01 1.19 75 1012.2
20260505220521 11 0 0.0 4.8 0.00 2.01 1.19 75 1012.3
20260505220041 11 0 0.0 3.2 0.00 2.01 1.19 75 1012.3
20260505215525 11 5 0.0 6.4 0.00 2.01 1.19 74 1012.3
20260505215025 11 0 0.0 6.4 0.00 2.01 1.19 75 1012.2
20260505214536 11 0 0.0 6.4 0.00 2.01 1.19 74 1012.3
20260505214023 11 0 0.0 6.4 0.00 2.01 1.19 75 1012.3
20260505213527 11 315 1.6 6.4 0.00 2.01 1.19 74 1012.4
20260505213043 11 9 0.0 8.0 0.00 2.01 1.19 75 1012.5
20260505212526 11 0 0.0 8.0 0.00 2.01 1.19 73 1012.3
20260505212024 11 19 3.2 8.0 0.00 2.01 1.19 74 1012.4
20260505211541 11 0 0.0 8.0 0.00 2.01 1.19 75 1012.5
20260505211024 11 25 0.0 8.0 0.00 2.01 1.19 75 1012.5
20260505210521 11 0 1.6 8.0 0.00 2.01 1.19 75 1012.4
20260505210036 11 38 0.0 9.7 0.00 2.01 1.19 75 1012.5
20260505205525 11 0 0.0 12.9 0.00 2.01 1.19 75 1012.5
20260505205021 10 5 3.2 16.1 0.00 2.01 1.19 76 1012.5
20260505204537 10 360 1.6 16.1 0.00 2.01 1.19 78 1012.5
20260505204027 10 5 3.2 14.5 0.00 2.01 1.19 80 1012.5
20260505203521 10 0 0.0 8.0 0.00 2.01 1.19 82 1012.5
20260505203041 10 0 0.0 8.0 0.00 2.01 1.19 82 1012.5
20260505202523 10 0 0.0 4.8 0.00 2.01 1.19 81 1012.7
20260505202023 10 0 0.0 4.8 0.00 2.01 1.19 81 1012.9
20260505201537 10 0 0.0 4.8 0.00 2.01 1.19 82 1012.7
20260505201021 10 0 0.0 8.0 0.00 2.01 1.19 84 1012.9
20260505200522 10 0 0.0 8.0 0.00 2.01 1.19 82 1012.8
20260505200038 10 33 0.0 6.4 0.00 2.01 1.19 83 1012.9
20260505195528 10 0 0.0 8.0 0.00 2.01 1.19 83 1013.0
20260505195024 10 0 3.2 8.0 0.00 2.01 1.19 83 1013.0
20260505194535 10 0 0.0 8.0 0.00 2.01 1.19 84 1013.0
20260505194024 10 0 0.0 6.4 0.00 2.01 1.19 83 1012.9
20260505193527 10 0 0.0 6.4 0.00 2.01 1.19 85 1013.1
20260505193052 9 35 1.6 8.0 0.00 2.01 1.19 85 1013.1
20260505192524 9 0 1.6 12.9 0.00 2.01 1.19 85 1013.0
20260505192024 9 32 1.6 12.9 0.00 2.01 1.19 85 1013.0
20260505191542 9 27 0.0 8.0 0.03 2.01 1.19 86 1013.0
20260505191025 9 0 0.0 8.0 0.03 2.01 1.19 86 1012.8
20260505190525 9 0 1.6 8.0 0.03 2.01 1.19 87 1012.7
20260505190042 9 0 0.0 1.6 0.03 2.01 1.19 86 1012.7
20260505185523 9 0 0.0 6.4 0.03 2.01 1.19 87 1012.6
20260505185027 9 0 0.0 6.4 0.03 2.01 1.19 87 1012.8
20260505184535 9 65 0.0 6.4 0.03 2.01 1.19 87 1012.8
20260505184025 8 0 0.0 1.6 0.05 2.01 1.19 87 1012.8
20260505183525 8 0 0.0 3.2 0.05 2.01 1.19 87 1013.0
20260505183037 8 0 0.0 3.2 0.05 2.01 1.19 87 1013.0
20260505182523 8 0 0.0 0.0 0.08 2.01 1.19 87 1013.0
20260505182025 8 0 0.0 4.8 0.08 2.01 1.19 87 1013.3
20260505181536 8 0 0.0 6.4 0.10 1.98 1.17 87 1013.3
20260505181024 8 0 0.0 11.3 0.13 1.98 1.17 87 1013.3
20260505180524 8 59 0.0 11.3 0.13 1.98 1.17 87 1013.4
20260505180045 8 12 0.0 9.7 0.13 1.98 1.17 87 1013.4
20260505175528 8 0 0.0 6.4 0.13 1.98 1.17 88 1013.6
20260505175024 8 0 0.0 6.4 0.13 1.98 1.17 88 1013.5
20260505174538 8 38 0.0 6.4 0.13 1.98 1.17 88 1013.8
20260505174025 8 0 0.0 6.4 0.10 1.96 1.14 88 1013.7
20260505173527 8 0 0.0 6.4 0.13 1.96 1.14 88 1013.6
20260505173035 8 0 0.0 0.0 0.13 1.96 1.14 88 1013.8
20260505172524 8 0 0.0 0.0 0.13 1.93 1.12 88 1013.8
20260505172024 8 0 0.0 0.0 0.10 1.91 1.09 88 1013.8
20260505171541 8 0 0.0 1.6 0.08 1.88 1.07 88 1013.6
20260505171025 8 0 0.0 1.6 0.05 1.85 1.04 88 1013.6
20260505170524 8 48 0.0 3.2 0.05 1.85 1.04 88 1013.5
20260505170050 8 0 0.0 3.2 0.05 1.85 1.04 88 1013.5
20260505165523 8 0 0.0 1.6 0.05 1.85 1.04 88 1013.5
20260505165023 8 0 0.0 1.6 0.05 1.85 1.04 88 1013.4
20260505164540 8 0 0.0 3.2 0.05 1.85 1.04 88 1013.6
20260505164024 8 0 0.0 4.8 0.05 1.85 1.04 88 1013.5
20260505163520 8 0 0.0 4.8 0.03 1.83 1.02 88 1013.5
20260505163041 8 0 0.0 3.2 0.05 1.83 1.02 88 1013.4
20260505162523 8 0 0.0 3.2 0.03 1.80 0.99 88 1013.4
20260505162022 8 0 0.0 3.2 0.05 1.80 0.99 87 1013.4
20260505161536 8 0 0.0 4.8 0.05 1.80 0.99 88 1013.5
20260505161023 8 0 0.0 6.4 0.05 1.80 0.99 87 1013.6
20260505160523 8 0 0.0 6.4 0.05 1.80 0.99 87 1013.4
20260505153043 7 0 0.0 8.0 0.13 1.78 0.97 87 1013.5
20260505152520 7 0 0.0 11.3 0.13 1.78 0.97 87 1013.6
20260505152029 7 0 1.6 11.3 0.10 1.75 0.94 87 1013.2
20260505151540 7 0 0.0 8.0 0.10 1.75 0.94 87 1013.5
20260505151021 7 0 0.0 12.9 0.10 1.75 0.94 87 1013.8
20260505150523 7 36 0.0 12.9 0.10 1.75 0.94 87 1013.6
20260505140523 8 0 1.6 11.3 0.03 1.65 0.84 86 1012.2
20260505125024 8 0 0.0 0.0 0.18 1.63 0.81 83 1011.5
20260505124540 8 0 0.0 1.6 0.18 1.63 0.81 81 1011.4
20260505124023 9 0 0.0 8.0 0.15 1.60 0.79 79 1012.0
20260505123524 9 0 1.6 17.7 0.00 1.45 0.64 78 1011.3
20260505123048 9 0 3.2 17.7 0.00 1.45 0.64 78 1012.9
20260505122524 9 284 1.6 9.7 0.03 1.45 0.64 78 1012.1
20260505122024 8 0 1.6 8.0 0.03 1.45 0.64 78 1010.1
20260505121537 8 0 0.0 8.0 0.03 1.45 0.64 79 1010.0
20260505121025 8 13 0.0 8.0 0.03 1.45 0.64 78 1010.0
20260505120527 8 0 0.0 8.0 0.03 1.45 0.64 78 1010.1
20260505120043 8 0 0.0 9.7 0.03 1.45 0.64 78 1010.1
20260505115524 8 0 0.0 9.7 0.05 1.45 0.64 79 1009.9
20260505115024 8 0 0.0 4.8 0.13 1.45 0.64 80 1009.9
20260505114534 8 0 0.0 0.0 0.13 1.45 0.64 80 1010.2
20260505114025 8 0 0.0 1.6 0.13 1.45 0.64 79 1010.6
20260505113524 9 0 0.0 3.2 0.13 1.45 0.64 78 1010.7
20260505113040 9 0 0.0 9.7 0.13 1.45 0.64 77 1010.1
20260505112527 9 15 0.0 9.7 0.10 1.42 0.61 75 1009.8
20260505112024 9 72 0.0 8.0 0.10 1.42 0.61 76 1010.0
20260505111536 9 0 0.0 8.0 0.10 1.42 0.61 75 1009.2
20260505111025 9 34 1.6 19.3 0.10 1.42 0.61 73 1009.7
20260505110525 10 0 3.2 19.3 0.10 1.42 0.61 70 1009.6
20260505102024 11 28 3.2 14.5 0.00 1.32 0.51 61 1008.9
20260505101536 11 30 4.8 14.5 0.00 1.32 0.51 61 1009.0
20260505101027 11 0 4.8 14.5 0.00 1.32 0.51 61 1009.0
20260505100524 11 9 6.4 14.5 0.00 1.32 0.51 62 1009.0
20260505100038 11 19 3.2 14.5 0.00 1.32 0.51 62 1009.0
20260505095524 11 21 3.2 12.9 0.00 1.32 0.51 63 1009.2
20260505095023 11 5 3.2 11.3 0.00 1.32 0.51 63 1009.1
20260505094539 11 52 3.2 12.9 0.00 1.32 0.51 63 1009.6
20260505094025 11 19 3.2 12.9 0.00 1.32 0.51 62 1009.9
20260505093526 11 0 3.2 14.5 0.00 1.32 0.51 62 1010.0
20260505093036 11 36 1.6 14.5 0.00 1.32 0.51 63 1009.8
20260505092525 11 21 4.8 19.3 0.00 1.32 0.51 61 1009.4
20260505092025 11 76 4.8 19.3 0.00 1.32 0.51 63 1009.4
20260505091538 11 14 3.2 17.7 0.00 1.32 0.51 63 1009.4
20260505091027 11 17 3.2 17.7 0.00 1.32 0.51 64 1009.1
20260505090524 11 351 3.2 17.7 0.00 1.32 0.51 65 1009.1
20260505090034 10 40 6.4 11.3 0.00 1.32 0.51 67 1009.2
20260505085526 10 0 1.6 16.1 0.00 1.32 0.51 70 1009.1
20260505085024 10 0 1.6 16.1 0.00 1.32 0.51 70 1008.9
20260505084555 10 15 4.8 16.1 0.00 1.32 0.51 71 1008.6
20260505084025 10 40 4.8 16.1 0.00 1.32 0.51 72 1008.3
20260505083529 10 34 4.8 14.5 0.00 1.32 0.51 72 1008.2
20260505083057 10 9 3.2 20.9 0.00 1.32 0.51 73 1008.0
20260505082525 10 36 3.2 20.9 0.00 1.32 0.51 74 1007.8
20260505082024 10 348 3.2 16.1 0.03 1.32 0.51 76 1007.6
20260505081553 10 46 3.2 14.5 0.05 1.32 0.51 77 1007.2
20260505081025 10 0 1.6 17.7 0.08 1.32 0.51 78 1007.1
20260505080525 10 0 1.6 17.7 0.13 1.32 0.51 79 1007.1
20260505080044 10 36 4.8 17.7 0.15 1.32 0.51 81 1007.0
20260505075524 10 0 0.0 19.3 0.23 1.32 0.51 82 1007.0
20260505075023 10 0 4.8 24.1 0.25 1.32 0.51 82 1007.0
20260505074535 10 40 8.0 24.1 0.28 1.32 0.51 84 1006.9
20260505074024 10 0 8.0 19.3 0.38 1.32 0.51 86 1006.7
20260505073521 10 38 3.2 9.7 0.38 1.32 0.51 85 1007.9
20260505073048 10 0 0.0 1.6 0.41 1.32 0.51 85 1009.5
20260505072523 10 0 0.0 0.0 0.41 1.32 0.51 84 1009.3
20260505072024 10 0 0.0 0.0 0.38 1.30 0.48 83 1008.5
20260505071545 10 0 0.0 6.4 0.36 1.27 0.46 81 1008.6
20260505071023 10 0 0.0 6.4 0.30 1.22 0.41 81 1008.5
20260505070528 11 0 1.6 6.4 0.28 1.19 0.38 79 1008.3
20260505070044 11 68 0.0 17.7 0.23 1.14 0.33 77 1009.0
20260505065523 11 0 0.0 19.3 0.18 1.09 0.28 73 1009.5
20260505065023 12 0 4.8 20.9 0.15 1.07 0.25 69 1009.8
20260505064536 13 35 8.0 22.5 0.13 1.04 0.23 65 1009.5
20260505064026 13 344 3.2 24.1 0.03 0.94 0.13 58 1009.4
20260505063523 14 9 9.7 24.1 0.03 0.94 0.13 55 1008.6
20260505063040 15 0 8.0 32.2 0.00 0.91 0.10 51 1007.8
20260505062521 16 53 11.3 32.2 0.00 0.91 0.10 47 1007.5
20260505062024 16 10 8.0 20.9 0.00 0.91 0.10 46 1007.6
20260505061535 16 19 8.0 24.1 0.00 0.91 0.10 46 1007.7
20260505061024 16 59 6.4 25.7 0.00 0.91 0.10 46 1007.2
20260505060524 16 33 11.3 29.0 0.03 0.91 0.10 46 1007.2
20260505060056 16 19 9.7 29.0 0.08 0.91 0.10 49 1007.0
20260505055527 16 19 9.7 29.0 0.13 0.91 0.10 48 1006.4
20260505055023 16 22 11.3 27.4 0.18 0.91 0.10 52 1006.1
20260505054540 16 28 8.0 20.9 0.53 0.91 0.10 56 1005.9
20260505054027 16 29 8.0 29.0 0.69 0.91 0.10 56 1005.7
20260505053525 16 37 8.0 29.0 0.91 0.91 0.10 58 1005.7
20260505053038 15 32 6.4 20.9 0.91 0.91 0.10 66 1005.8
20260505052523 15 24 8.0 19.3 0.91 0.91 0.10 70 1005.7
20260505052024 14 349 3.2 8.0 0.91 0.91 0.10 80 1005.8
20260505051535 14 0 1.6 8.0 0.91 0.91 0.10 84 1005.5
20260505051022 14 0 0.0 6.4 0.91 0.91 0.10 84 1005.3
20260505050524 14 0 0.0 0.0 0.89 0.89 0.08 83 1005.4
20260505041549 21 26 6.4 17.7 0.00 0.00 0.00 51 1004.3
20260505041023 21 300 6.4 16.1 0.00 0.00 0.00 56 1004.2
20260505040530 21 0 3.2 12.9 0.00 0.00 0.00 62 1004.4
20260505040041 21 0 1.6 14.5 0.00 0.00 0.00 64 1004.5
20260505035527 21 352 3.2 14.5 0.00 0.00 0.00 65 1004.3
20260505035023 21 24 1.6 8.0 0.00 0.00 0.00 68 1004.4
20260505034537 21 11 0.0 4.8 0.00 0.00 0.00 69 1004.3
20260505034027 21 0 0.0 0.0 0.00 0.00 0.00 68 1003.9
20260505033523 21 0 0.0 0.0 0.00 0.00 0.00 68 1003.7
20260505033037 21 0 0.0 0.0 0.00 0.00 0.00 68 1003.6
20260505032523 21 0 0.0 0.0 0.00 0.00 0.00 68 1003.6
20260505032023 21 0 0.0 0.0 0.00 0.00 0.00 68 1003.7
20260505031536 21 0 0.0 0.0 0.00 0.00 0.00 67 1003.6
20260505031024 21 0 0.0 0.0 0.00 0.00 0.00 67 1003.6
20260505030524 21 0 0.0 0.0 0.00 0.00 0.00 66 1003.6
20260505030044 21 0 0.0 0.0 0.00 0.00 0.00 66 1003.6